contact:dominique.lefevre@mio.osupytheas.fr, maurice.libes@osupytheas.fr, didier.mallarino@osupytheas.fr
Project:EMSO http://www.emso-fr.org/EMSO-France
Depth: 2436.0 m
Title:EMSO Ligure Ouest : Data MII capteur OXYGEN
DateTime,Latitude,Longitude,Optode-Type,Optode_Serial,Oxygen,Saturation_Oxygen,Temperature
DateTime,Latitude,Longitude,Optode-Type,Optode_Serial,µmol.l-1,%,degC
2017-11-20T00:01:05,42.805,6.029,4330,1995,196.445,60.074,13.287
2017-11-20T00:04:05,42.805,6.029,4330,1995,196.526,60.101,13.289
2017-11-20T00:07:05,42.805,6.029,4330,1995,196.416,60.067,13.288
2017-11-20T00:10:05,42.805,6.029,4330,1995,196.280,60.024,13.287
2017-11-20T00:13:05,42.805,6.029,4330,1995,196.312,60.034,13.287
2017-11-20T00:16:05,42.805,6.029,4330,1995,196.361,60.048,13.286
2017-11-20T00:19:05,42.805,6.029,4330,1995,196.261,60.018,13.287
2017-11-20T00:22:05,42.805,6.029,4330,1995,196.395,60.058,13.286
2017-11-20T00:25:05,42.805,6.029,4330,1995,196.416,60.065,13.286
2017-11-20T00:28:05,42.805,6.029,4330,1995,196.375,60.052,13.287
2017-11-20T00:31:05,42.805,6.029,4330,1995,196.315,60.036,13.288
2017-11-20T00:34:05,42.805,6.029,4330,1995,196.396,60.061,13.288
2017-11-20T00:37:05,42.805,6.029,4330,1995,196.513,60.095,13.287
2017-11-20T00:40:05,42.805,6.029,4330,1995,196.776,60.176,13.287
2017-11-20T00:43:05,42.805,6.029,4330,1995,196.770,60.173,13.287
2017-11-20T00:46:05,42.805,6.029,4330,1995,196.791,60.179,13.286
2017-11-20T00:49:05,42.805,6.029,4330,1995,196.843,60.197,13.287
2017-11-20T00:52:05,42.805,6.029,4330,1995,196.646,60.137,13.287
2017-11-20T00:55:05,42.805,6.029,4330,1995,196.673,60.145,13.288
2017-11-20T00:58:05,42.805,6.029,4330,1995,196.507,60.093,13.287
2017-11-20T01:01:05,42.805,6.029,4330,1995,196.294,60.028,13.287
2017-11-20T01:04:05,42.805,6.029,4330,1995,196.421,60.067,13.287
2017-11-20T01:07:05,42.805,6.029,4330,1995,196.690,60.148,13.287
2017-11-20T01:10:05,42.805,6.029,4330,1995,196.529,60.100,13.287
2017-11-20T01:13:05,42.805,6.029,4330,1995,196.522,60.100,13.289
2017-11-20T01:16:05,42.805,6.029,4330,1995,196.483,60.086,13.287
2017-11-20T01:19:05,42.805,6.029,4330,1995,196.555,60.109,13.287
2017-11-20T01:22:05,42.805,6.029,4330,1995,196.340,60.042,13.287
2017-11-20T01:25:05,42.805,6.029,4330,1995,196.328,60.039,13.287
2017-11-20T01:28:05,42.805,6.029,4330,1995,196.125,59.977,13.288
2017-11-20T01:31:05,42.805,6.029,4330,1995,196.126,59.977,13.287
2017-11-20T01:34:05,42.805,6.029,4330,1995,196.335,60.041,13.287
2017-11-20T01:37:05,42.805,6.029,4330,1995,196.318,60.035,13.287
2017-11-20T01:40:05,42.805,6.029,4330,1995,196.128,59.977,13.287
2017-11-20T01:43:05,42.805,6.029,4330,1995,196.238,60.011,13.287
2017-11-20T01:46:05,42.805,6.029,4330,1995,196.342,60.042,13.287
2017-11-20T01:49:05,42.805,6.029,4330,1995,196.173,59.991,13.287
2017-11-20T01:52:05,42.805,6.029,4330,1995,196.152,59.984,13.287
2017-11-20T01:55:05,42.805,6.029,4330,1995,196.400,60.060,13.287
2017-11-20T01:58:05,42.805,6.029,4330,1995,196.372,60.053,13.288
2017-11-20T02:01:05,42.805,6.029,4330,1995,196.092,59.967,13.288
2017-11-20T02:04:05,42.805,6.029,4330,1995,195.954,59.924,13.287
2017-11-20T02:07:05,42.805,6.029,4330,1995,196.021,59.945,13.288
2017-11-20T02:10:05,42.805,6.029,4330,1995,196.146,59.984,13.288
2017-11-20T02:13:05,42.805,6.029,4330,1995,195.947,59.923,13.288
2017-11-20T02:16:05,42.805,6.029,4330,1995,195.965,59.927,13.287
2017-11-20T02:19:05,42.805,6.029,4330,1995,196.056,59.956,13.287
2017-11-20T02:22:05,42.805,6.029,4330,1995,196.046,59.953,13.287
2017-11-20T02:25:05,42.805,6.029,4330,1995,196.053,59.954,13.287
2017-11-20T02:28:05,42.805,6.029,4330,1995,196.092,59.967,13.287
2017-11-20T02:31:05,42.805,6.029,4330,1995,196.229,60.009,13.287
2017-11-20T02:34:05,42.805,6.029,4330,1995,196.275,60.022,13.287
2017-11-20T02:37:05,42.805,6.029,4330,1995,196.238,60.012,13.288
2017-11-20T02:40:05,42.805,6.029,4330,1995,196.150,59.984,13.287
2017-11-20T02:43:05,42.805,6.029,4330,1995,196.264,60.019,13.287
2017-11-20T02:46:05,42.805,6.029,4330,1995,196.247,60.014,13.287
2017-11-20T02:49:05,42.805,6.029,4330,1995,196.229,60.008,13.287
2017-11-20T02:52:05,42.805,6.029,4330,1995,196.116,59.974,13.287
2017-11-20T02:55:05,42.805,6.029,4330,1995,196.100,59.968,13.287
2017-11-20T02:58:05,42.805,6.029,4330,1995,196.353,60.047,13.288
2017-11-20T03:01:05,42.805,6.029,4330,1995,196.251,60.014,13.287
2017-11-20T03:04:05,42.805,6.029,4330,1995,196.405,60.066,13.290
2017-11-20T03:07:05,42.805,6.029,4330,1995,196.511,60.094,13.287
2017-11-20T03:10:05,42.805,6.029,4330,1995,196.500,60.092,13.287
2017-11-20T03:13:05,42.805,6.029,4330,1995,196.311,60.033,13.287
2017-11-20T03:16:05,42.805,6.029,4330,1995,196.098,59.968,13.287
2017-11-20T03:19:05,42.805,6.029,4330,1995,195.864,59.898,13.288
2017-11-20T03:22:05,42.805,6.029,4330,1995,195.945,59.926,13.291
2017-11-20T03:25:05,42.805,6.029,4330,1995,195.876,59.903,13.289
2017-11-20T03:28:05,42.805,6.029,4330,1995,195.785,59.875,13.289
2017-11-20T03:31:05,42.805,6.029,4330,1995,195.636,59.829,13.289
2017-11-20T03:34:05,42.805,6.029,4330,1995,195.470,59.778,13.289
2017-11-20T03:37:05,42.805,6.029,4330,1995,195.180,59.689,13.288
2017-11-20T03:40:05,42.805,6.029,4330,1995,195.153,59.683,13.290
2017-11-20T03:43:05,42.805,6.029,4330,1995,194.978,59.627,13.288
2017-11-20T03:46:05,42.805,6.029,4330,1995,194.888,59.600,13.289
2017-11-20T03:49:05,42.805,6.029,4330,1995,194.887,59.599,13.288
2017-11-20T03:52:05,42.805,6.029,4330,1995,194.859,59.590,13.288
2017-11-20T03:55:05,42.805,6.029,4330,1995,194.956,59.621,13.288
2017-11-20T03:58:05,42.805,6.029,4330,1995,194.943,59.616,13.288
2017-11-20T04:01:05,42.805,6.029,4330,1995,194.965,59.623,13.288
2017-11-20T04:04:05,42.805,6.029,4330,1995,194.959,59.621,13.288
2017-11-20T04:07:05,42.805,6.029,4330,1995,195.127,59.672,13.288
2017-11-20T04:10:05,42.805,6.029,4330,1995,195.405,59.759,13.289
2017-11-20T04:13:05,42.805,6.029,4330,1995,195.272,59.717,13.288
2017-11-20T04:16:05,42.805,6.029,4330,1995,195.269,59.716,13.288
2017-11-20T04:19:05,42.805,6.029,4330,1995,195.191,59.692,13.288
2017-11-20T04:22:05,42.805,6.029,4330,1995,195.137,59.677,13.289
2017-11-20T04:25:05,42.805,6.029,4330,1995,195.016,59.639,13.288
2017-11-20T04:28:05,42.805,6.029,4330,1995,194.963,59.623,13.289
2017-11-20T04:31:05,42.805,6.029,4330,1995,194.913,59.608,13.289
2017-11-20T04:34:05,42.805,6.029,4330,1995,194.923,59.610,13.288
2017-11-20T04:37:05,42.805,6.029,4330,1995,195.137,59.676,13.289
2017-11-20T04:40:05,42.805,6.029,4330,1995,195.276,59.718,13.288
2017-11-20T04:43:05,42.805,6.029,4330,1995,195.213,59.699,13.288
2017-11-20T04:46:05,42.805,6.029,4330,1995,194.985,59.630,13.289
2017-11-20T04:49:05,42.805,6.029,4330,1995,194.860,59.593,13.289
2017-11-20T04:52:05,42.805,6.029,4330,1995,194.719,59.550,13.289
2017-11-20T04:55:05,42.805,6.029,4330,1995,194.673,59.535,13.289
2017-11-20T04:58:05,42.805,6.029,4330,1995,194.673,59.536,13.290
2017-11-20T05:01:05,42.805,6.029,4330,1995,194.514,59.487,13.289
2017-11-20T05:04:05,42.805,6.029,4330,1995,194.267,59.411,13.289
2017-11-20T05:07:05,42.805,6.029,4330,1995,194.056,59.346,13.289
2017-11-20T05:10:05,42.805,6.029,4330,1995,194.197,59.391,13.290
2017-11-20T05:13:05,42.805,6.029,4330,1995,194.285,59.417,13.289
2017-11-20T05:16:05,42.805,6.029,4330,1995,194.472,59.474,13.289
2017-11-20T05:19:05,42.805,6.029,4330,1995,194.376,59.445,13.289
2017-11-20T05:22:05,42.805,6.029,4330,1995,194.267,59.411,13.289
2017-11-20T05:25:05,42.805,6.029,4330,1995,194.120,59.364,13.287
2017-11-20T05:28:05,42.805,6.029,4330,1995,194.462,59.468,13.287
2017-11-20T05:31:05,42.805,6.029,4330,1995,194.713,59.545,13.287
2017-11-20T05:34:05,42.805,6.029,4330,1995,194.829,59.581,13.287
2017-11-20T05:37:05,42.805,6.029,4330,1995,195.230,59.703,13.287
2017-11-20T05:40:05,42.805,6.029,4330,1995,195.362,59.743,13.287
2017-11-20T05:43:05,42.805,6.029,4330,1995,195.586,59.812,13.287
2017-11-20T05:46:05,42.805,6.029,4330,1995,195.781,59.872,13.288
2017-11-20T05:49:05,42.805,6.029,4330,1995,195.773,59.868,13.287
2017-11-20T05:52:05,42.805,6.029,4330,1995,195.729,59.855,13.287
2017-11-20T05:55:05,42.805,6.029,4330,1995,195.931,59.916,13.286
2017-11-20T05:58:05,42.805,6.029,4330,1995,196.046,59.951,13.286
2017-11-20T06:01:05,42.805,6.029,4330,1995,195.990,59.934,13.286
2017-11-20T06:04:05,42.805,6.029,4330,1995,196.098,59.967,13.286
2017-11-20T06:07:05,42.805,6.029,4330,1995,196.277,60.021,13.286
2017-11-20T06:10:05,42.805,6.029,4330,1995,196.381,60.053,13.286
2017-11-20T06:13:05,42.805,6.029,4330,1995,196.444,60.073,13.286
2017-11-20T06:16:05,42.805,6.029,4330,1995,196.418,60.065,13.286
2017-11-20T06:19:05,42.805,6.029,4330,1995,196.347,60.043,13.286
2017-11-20T06:22:05,42.805,6.029,4330,1995,196.325,60.037,13.286
2017-11-20T06:25:05,42.805,6.029,4330,1995,196.387,60.056,13.287
2017-11-20T06:28:05,42.805,6.029,4330,1995,196.328,60.038,13.286
2017-11-20T06:31:05,42.805,6.029,4330,1995,196.298,60.029,13.287
2017-11-20T06:34:05,42.805,6.029,4330,1995,196.178,59.992,13.286
2017-11-20T06:37:05,42.805,6.029,4330,1995,196.200,59.999,13.286
2017-11-20T06:40:05,42.805,6.029,4330,1995,196.220,60.005,13.287
2017-11-20T06:43:05,42.805,6.029,4330,1995,196.154,59.984,13.286
2017-11-20T06:46:05,42.805,6.029,4330,1995,196.209,60.001,13.286
2017-11-20T06:49:05,42.805,6.029,4330,1995,196.254,60.015,13.286
2017-11-20T06:52:05,42.805,6.029,4330,1995,196.286,60.025,13.286
2017-11-20T06:55:05,42.805,6.029,4330,1995,196.189,59.995,13.286
2017-11-20T06:58:05,42.805,6.029,4330,1995,196.139,59.980,13.286
2017-11-20T07:01:05,42.805,6.029,4330,1995,196.187,59.995,13.286
2017-11-20T07:04:05,42.805,6.029,4330,1995,196.235,60.009,13.286
2017-11-20T07:07:05,42.805,6.029,4330,1995,196.202,59.999,13.286
2017-11-20T07:10:05,42.805,6.029,4330,1995,196.203,59.999,13.286
2017-11-20T07:13:05,42.805,6.029,4330,1995,196.231,60.008,13.286
2017-11-20T07:16:05,42.805,6.029,4330,1995,196.289,60.025,13.286
2017-11-20T07:19:05,42.805,6.029,4330,1995,196.336,60.040,13.286
2017-11-20T07:22:05,42.805,6.029,4330,1995,196.322,60.036,13.286
2017-11-20T07:25:05,42.805,6.029,4330,1995,196.193,59.996,13.286
2017-11-20T07:28:05,42.805,6.029,4330,1995,196.331,60.038,13.286
2017-11-20T07:31:05,42.805,6.029,4330,1995,196.291,60.026,13.286
2017-11-20T07:34:05,42.805,6.029,4330,1995,196.301,60.029,13.286
2017-11-20T07:37:05,42.805,6.029,4330,1995,196.391,60.056,13.286
2017-11-20T07:40:05,42.805,6.029,4330,1995,196.358,60.046,13.286
2017-11-20T07:43:05,42.805,6.029,4330,1995,196.338,60.040,13.286
2017-11-20T07:46:05,42.805,6.029,4330,1995,196.397,60.058,13.286
2017-11-20T07:49:05,42.805,6.029,4330,1995,196.457,60.077,13.286
2017-11-20T07:52:05,42.805,6.029,4330,1995,196.432,60.069,13.286
2017-11-20T07:55:05,42.805,6.029,4330,1995,196.427,60.067,13.286
2017-11-20T07:58:05,42.805,6.029,4330,1995,196.446,60.073,13.286
2017-11-20T08:01:05,42.805,6.029,4330,1995,196.473,60.081,13.286
2017-11-20T08:04:05,42.805,6.029,4330,1995,196.495,60.088,13.286
2017-11-20T08:07:05,42.805,6.029,4330,1995,196.514,60.094,13.286
2017-11-20T08:10:05,42.805,6.029,4330,1995,196.517,60.095,13.286
2017-11-20T08:13:05,42.805,6.029,4330,1995,196.484,60.085,13.286
2017-11-20T08:16:05,42.805,6.029,4330,1995,196.452,60.075,13.286
2017-11-20T08:19:05,42.805,6.029,4330,1995,196.447,60.074,13.286
2017-11-20T08:22:05,42.805,6.029,4330,1995,196.375,60.051,13.286
2017-11-20T08:25:05,42.805,6.029,4330,1995,196.408,60.062,13.286
2017-11-20T08:28:05,42.805,6.029,4330,1995,196.371,60.050,13.286
2017-11-20T08:31:05,42.805,6.029,4330,1995,196.367,60.049,13.286
2017-11-20T08:34:05,42.805,6.029,4330,1995,196.230,60.007,13.286
2017-11-20T08:37:05,42.805,6.029,4330,1995,196.065,59.957,13.286
2017-11-20T08:40:05,42.805,6.029,4330,1995,196.162,59.986,13.286
2017-11-20T08:43:05,42.805,6.029,4330,1995,196.212,60.001,13.286
2017-11-20T08:46:05,42.805,6.029,4330,1995,196.338,60.040,13.286
2017-11-20T08:49:05,42.805,6.029,4330,1995,196.423,60.066,13.286
2017-11-20T08:52:05,42.805,6.029,4330,1995,196.361,60.047,13.286
2017-11-20T08:55:05,42.805,6.029,4330,1995,196.323,60.035,13.286
2017-11-20T08:58:05,42.805,6.029,4330,1995,196.393,60.056,13.286
2017-11-20T09:01:05,42.805,6.029,4330,1995,196.381,60.053,13.286
2017-11-20T09:04:05,42.805,6.029,4330,1995,196.418,60.064,13.286
2017-11-20T09:07:05,42.805,6.029,4330,1995,196.288,60.025,13.286
2017-11-20T09:10:05,42.805,6.029,4330,1995,196.327,60.037,13.286
2017-11-20T09:13:05,42.805,6.029,4330,1995,196.342,60.041,13.286
2017-11-20T09:16:05,42.805,6.029,4330,1995,196.421,60.065,13.286
2017-11-20T09:19:05,42.805,6.029,4330,1995,196.415,60.063,13.286
2017-11-20T09:22:05,42.805,6.029,4330,1995,196.382,60.053,13.286
2017-11-20T09:25:05,42.805,6.029,4330,1995,196.376,60.051,13.286
2017-11-20T09:28:05,42.805,6.029,4330,1995,196.298,60.027,13.286
2017-11-20T09:31:05,42.805,6.029,4330,1995,196.291,60.025,13.286
2017-11-20T09:34:05,42.805,6.029,4330,1995,196.285,60.023,13.286
2017-11-20T09:37:05,42.805,6.029,4330,1995,196.240,60.010,13.286
2017-11-20T09:40:05,42.805,6.029,4330,1995,196.338,60.040,13.286
2017-11-20T09:43:05,42.805,6.029,4330,1995,196.437,60.070,13.286
2017-11-20T09:46:05,42.805,6.029,4330,1995,196.403,60.059,13.286
2017-11-20T09:49:05,42.805,6.029,4330,1995,196.386,60.055,13.286
2017-11-20T09:52:05,42.805,6.029,4330,1995,196.327,60.037,13.286
2017-11-20T09:55:05,42.805,6.029,4330,1995,196.411,60.062,13.286
2017-11-20T09:58:05,42.805,6.029,4330,1995,196.503,60.090,13.286
2017-11-20T10:01:05,42.805,6.029,4330,1995,196.536,60.100,13.286
2017-11-20T10:04:05,42.805,6.029,4330,1995,196.504,60.091,13.286
2017-11-20T10:07:05,42.805,6.029,4330,1995,196.550,60.105,13.286
2017-11-20T10:10:05,42.805,6.029,4330,1995,196.698,60.150,13.286
2017-11-20T10:13:05,42.805,6.029,4330,1995,196.683,60.145,13.286
2017-11-20T10:16:05,42.805,6.029,4330,1995,196.569,60.110,13.286
2017-11-20T10:19:05,42.805,6.029,4330,1995,196.702,60.151,13.286
2017-11-20T10:22:05,42.805,6.029,4330,1995,196.623,60.127,13.286
2017-11-20T10:25:05,42.805,6.029,4330,1995,196.619,60.125,13.286
2017-11-20T10:28:05,42.805,6.029,4330,1995,196.626,60.128,13.286
2017-11-20T10:31:05,42.805,6.029,4330,1995,196.632,60.130,13.286
2017-11-20T10:34:05,42.805,6.029,4330,1995,196.586,60.116,13.286
2017-11-20T10:37:05,42.805,6.029,4330,1995,196.604,60.121,13.286
2017-11-20T10:40:05,42.805,6.029,4330,1995,196.662,60.139,13.286
2017-11-20T10:43:05,42.805,6.029,4330,1995,196.693,60.148,13.286
2017-11-20T10:46:05,42.805,6.029,4330,1995,196.787,60.177,13.286
2017-11-20T10:49:05,42.805,6.029,4330,1995,196.743,60.163,13.286
2017-11-20T10:52:05,42.805,6.029,4330,1995,196.765,60.170,13.285
2017-11-20T10:55:05,42.805,6.029,4330,1995,196.762,60.169,13.286
2017-11-20T10:58:05,42.805,6.029,4330,1995,196.715,60.155,13.285
2017-11-20T11:01:05,42.805,6.029,4330,1995,196.781,60.175,13.285
2017-11-20T11:04:05,42.805,6.029,4330,1995,196.763,60.169,13.285
2017-11-20T11:07:05,42.805,6.029,4330,1995,196.792,60.178,13.286
2017-11-20T11:10:05,42.805,6.029,4330,1995,196.742,60.163,13.285
2017-11-20T11:13:05,42.805,6.029,4330,1995,196.747,60.165,13.286
2017-11-20T11:16:05,42.805,6.029,4330,1995,196.806,60.183,13.286
2017-11-20T11:19:05,42.805,6.029,4330,1995,196.825,60.188,13.285
2017-11-20T11:22:05,42.805,6.029,4330,1995,196.822,60.188,13.285
2017-11-20T11:25:05,42.805,6.029,4330,1995,196.858,60.199,13.286
2017-11-20T11:28:05,42.805,6.029,4330,1995,196.809,60.184,13.286
2017-11-20T11:31:05,42.805,6.029,4330,1995,196.813,60.185,13.286
2017-11-20T11:34:05,42.805,6.029,4330,1995,196.838,60.192,13.286
2017-11-20T11:37:05,42.805,6.029,4330,1995,196.872,60.203,13.286
2017-11-20T11:40:05,42.805,6.029,4330,1995,196.879,60.205,13.286
2017-11-20T11:43:05,42.805,6.029,4330,1995,196.901,60.212,13.285
2017-11-20T11:46:05,42.805,6.029,4330,1995,196.891,60.209,13.285
2017-11-20T11:49:05,42.805,6.029,4330,1995,196.971,60.233,13.286
2017-11-20T11:52:05,42.805,6.029,4330,1995,196.963,60.231,13.285
2017-11-20T11:55:05,42.805,6.029,4330,1995,197.191,60.300,13.285
2017-11-20T11:58:05,42.805,6.029,4330,1995,197.197,60.302,13.285
2017-11-20T12:01:05,42.805,6.029,4330,1995,197.214,60.307,13.285
2017-11-20T12:04:05,42.805,6.029,4330,1995,197.386,60.360,13.285
2017-11-20T12:07:05,42.805,6.029,4330,1995,197.357,60.351,13.285
2017-11-20T12:10:05,42.805,6.029,4330,1995,197.511,60.398,13.285
2017-11-20T12:13:05,42.805,6.029,4330,1995,197.622,60.432,13.285
2017-11-20T12:16:05,42.805,6.029,4330,1995,197.676,60.449,13.285
2017-11-20T12:19:05,42.805,6.029,4330,1995,197.671,60.447,13.285
2017-11-20T12:22:05,42.805,6.029,4330,1995,197.636,60.436,13.286
2017-11-20T12:25:05,42.805,6.029,4330,1995,197.633,60.436,13.285
2017-11-20T12:28:05,42.805,6.029,4330,1995,197.610,60.429,13.285
2017-11-20T12:31:05,42.805,6.029,4330,1995,197.548,60.409,13.285
2017-11-20T12:34:05,42.805,6.029,4330,1995,197.615,60.430,13.286
2017-11-20T12:37:05,42.805,6.029,4330,1995,197.607,60.428,13.286
2017-11-20T12:40:05,42.805,6.029,4330,1995,197.571,60.417,13.286
2017-11-20T12:43:05,42.805,6.029,4330,1995,197.574,60.418,13.286
2017-11-20T12:46:05,42.805,6.029,4330,1995,197.596,60.425,13.286
2017-11-20T12:49:05,42.805,6.029,4330,1995,197.682,60.451,13.286
2017-11-20T12:52:05,42.805,6.029,4330,1995,197.747,60.470,13.285
2017-11-20T12:55:05,42.805,6.029,4330,1995,197.703,60.457,13.285
2017-11-20T12:58:05,42.805,6.029,4330,1995,197.767,60.477,13.286
2017-11-20T13:01:05,42.805,6.029,4330,1995,197.864,60.507,13.286
2017-11-20T13:04:05,42.805,6.029,4330,1995,197.869,60.508,13.286
2017-11-20T13:07:05,42.805,6.029,4330,1995,197.819,60.492,13.285
2017-11-20T13:10:05,42.805,6.029,4330,1995,197.912,60.521,13.285
2017-11-20T13:13:05,42.805,6.029,4330,1995,197.947,60.532,13.286
2017-11-20T13:16:05,42.805,6.029,4330,1995,197.917,60.522,13.285
2017-11-20T13:19:05,42.805,6.029,4330,1995,197.945,60.531,13.286
2017-11-20T13:22:05,42.805,6.029,4330,1995,197.933,60.527,13.285
2017-11-20T13:25:05,42.805,6.029,4330,1995,197.949,60.532,13.286
2017-11-20T13:28:05,42.805,6.029,4330,1995,197.973,60.539,13.286
2017-11-20T13:31:05,42.805,6.029,4330,1995,197.987,60.544,13.285
2017-11-20T13:34:05,42.805,6.029,4330,1995,197.969,60.538,13.285
2017-11-20T13:37:05,42.805,6.029,4330,1995,197.887,60.514,13.286
2017-11-20T13:40:05,42.805,6.029,4330,1995,197.920,60.524,13.286
2017-11-20T13:43:05,42.805,6.029,4330,1995,197.906,60.519,13.286
2017-11-20T13:46:05,42.805,6.029,4330,1995,197.925,60.525,13.286
2017-11-20T13:49:05,42.805,6.029,4330,1995,197.898,60.517,13.286
2017-11-20T13:52:05,42.805,6.029,4330,1995,197.912,60.521,13.285
2017-11-20T13:55:05,42.805,6.029,4330,1995,197.963,60.537,13.286
2017-11-20T13:58:05,42.805,6.029,4330,1995,197.894,60.516,13.286
2017-11-20T14:01:05,42.805,6.029,4330,1995,197.829,60.496,13.286
2017-11-20T14:04:05,42.805,6.029,4330,1995,197.907,60.520,13.286
2017-11-20T14:07:05,42.805,6.029,4330,1995,197.805,60.489,13.286
2017-11-20T14:10:05,42.805,6.029,4330,1995,197.716,60.462,13.286
2017-11-20T14:13:05,42.805,6.029,4330,1995,197.645,60.440,13.286
2017-11-20T14:16:05,42.805,6.029,4330,1995,197.643,60.439,13.286
2017-11-20T14:19:05,42.805,6.029,4330,1995,197.596,60.425,13.286
2017-11-20T14:22:05,42.805,6.029,4330,1995,197.556,60.413,13.286
2017-11-20T14:25:05,42.805,6.029,4330,1995,197.454,60.382,13.286
2017-11-20T14:28:05,42.805,6.029,4330,1995,197.544,60.409,13.286
2017-11-20T14:31:05,42.805,6.029,4330,1995,197.525,60.404,13.286
2017-11-20T14:34:05,42.805,6.029,4330,1995,197.518,60.401,13.286
2017-11-20T14:37:05,42.805,6.029,4330,1995,197.550,60.411,13.286
2017-11-20T14:40:05,42.805,6.029,4330,1995,197.539,60.408,13.286
2017-11-20T14:43:05,42.805,6.029,4330,1995,197.583,60.421,13.286
2017-11-20T14:46:05,42.805,6.029,4330,1995,197.537,60.407,13.286
2017-11-20T14:49:05,42.805,6.029,4330,1995,197.559,60.414,13.286
2017-11-20T14:52:05,42.805,6.029,4330,1995,197.518,60.401,13.286
2017-11-20T14:55:05,42.805,6.029,4330,1995,197.498,60.395,13.286
2017-11-20T14:58:05,42.805,6.029,4330,1995,197.498,60.395,13.286
2017-11-20T15:01:05,42.805,6.029,4330,1995,197.495,60.394,13.286
2017-11-20T15:04:05,42.805,6.029,4330,1995,197.527,60.404,13.286
2017-11-20T15:07:05,42.805,6.029,4330,1995,197.510,60.398,13.286
2017-11-20T15:10:05,42.805,6.029,4330,1995,197.537,60.407,13.286
2017-11-20T15:13:05,42.805,6.029,4330,1995,197.529,60.405,13.286
2017-11-20T15:16:05,42.805,6.029,4330,1995,197.529,60.404,13.286
2017-11-20T15:19:05,42.805,6.029,4330,1995,197.527,60.404,13.286
2017-11-20T15:22:05,42.805,6.029,4330,1995,197.541,60.408,13.286
2017-11-20T15:25:05,42.805,6.029,4330,1995,197.486,60.391,13.286
2017-11-20T15:28:05,42.805,6.029,4330,1995,197.451,60.381,13.286
2017-11-20T15:31:05,42.805,6.029,4330,1995,197.492,60.393,13.286
2017-11-20T15:34:05,42.805,6.029,4330,1995,197.510,60.399,13.286
2017-11-20T15:37:05,42.805,6.029,4330,1995,197.582,60.421,13.286
2017-11-20T15:40:05,42.805,6.029,4330,1995,197.496,60.394,13.286
2017-11-20T15:43:05,42.805,6.029,4330,1995,197.428,60.374,13.286
2017-11-20T15:46:05,42.805,6.029,4330,1995,197.426,60.373,13.286
2017-11-20T15:49:05,42.805,6.029,4330,1995,197.332,60.344,13.286
2017-11-20T15:52:05,42.805,6.029,4330,1995,197.188,60.300,13.286
2017-11-20T15:55:05,42.805,6.029,4330,1995,197.043,60.256,13.287
2017-11-20T15:58:05,42.805,6.029,4330,1995,196.942,60.226,13.287
2017-11-20T16:01:05,42.805,6.029,4330,1995,197.033,60.254,13.287
2017-11-20T16:04:05,42.805,6.029,4330,1995,197.031,60.253,13.287
2017-11-20T16:07:05,42.805,6.029,4330,1995,196.891,60.210,13.286
2017-11-20T16:10:05,42.805,6.029,4330,1995,196.802,60.182,13.286
2017-11-20T16:13:05,42.805,6.029,4330,1995,196.807,60.185,13.287
2017-11-20T16:16:05,42.805,6.029,4330,1995,196.932,60.222,13.286
2017-11-20T16:19:05,42.805,6.029,4330,1995,196.855,60.198,13.286
2017-11-20T16:22:05,42.805,6.029,4330,1995,196.929,60.221,13.286
2017-11-20T16:25:05,42.805,6.029,4330,1995,196.816,60.187,13.286
2017-11-20T16:28:05,42.805,6.029,4330,1995,196.814,60.186,13.286
2017-11-20T16:31:05,42.805,6.029,4330,1995,196.840,60.194,13.287
2017-11-20T16:34:05,42.805,6.029,4330,1995,196.727,60.160,13.287
2017-11-20T16:37:05,42.805,6.029,4330,1995,196.727,60.160,13.286
2017-11-20T16:40:05,42.805,6.029,4330,1995,196.773,60.174,13.287
2017-11-20T16:43:05,42.805,6.029,4330,1995,196.527,60.099,13.287
2017-11-20T16:46:05,42.805,6.029,4330,1995,196.449,60.075,13.287
2017-11-20T16:49:05,42.805,6.029,4330,1995,196.446,60.079,13.290
2017-11-20T16:52:05,42.805,6.029,4330,1995,196.567,60.112,13.287
2017-11-20T16:55:05,42.805,6.029,4330,1995,196.526,60.098,13.286
2017-11-20T16:58:05,42.805,6.029,4330,1995,196.580,60.115,13.286
2017-11-20T17:01:05,42.805,6.029,4330,1995,196.493,60.088,13.286
2017-11-20T17:04:05,42.805,6.029,4330,1995,196.344,60.043,13.286
2017-11-20T17:07:05,42.805,6.029,4330,1995,196.441,60.072,13.287
2017-11-20T17:10:05,42.805,6.029,4330,1995,196.503,60.090,13.286
2017-11-20T17:13:05,42.805,6.029,4330,1995,196.531,60.100,13.286
2017-11-20T17:16:05,42.805,6.029,4330,1995,196.745,60.166,13.287
2017-11-20T17:19:05,42.805,6.029,4330,1995,196.659,60.139,13.286
2017-11-20T17:22:05,42.805,6.029,4330,1995,196.618,60.129,13.288
2017-11-20T17:25:05,42.805,6.029,4330,1995,196.394,60.059,13.287
2017-11-20T17:28:05,42.805,6.029,4330,1995,196.242,60.011,13.286
2017-11-20T17:31:05,42.805,6.029,4330,1995,196.227,60.007,13.286
2017-11-20T17:34:05,42.805,6.029,4330,1995,196.134,59.978,13.286
2017-11-20T17:37:05,42.805,6.029,4330,1995,196.175,59.992,13.287
2017-11-20T17:40:05,42.805,6.029,4330,1995,196.217,60.004,13.287
2017-11-20T17:43:05,42.805,6.029,4330,1995,196.137,59.979,13.287
2017-11-20T17:46:05,42.805,6.029,4330,1995,196.134,59.979,13.287
2017-11-20T17:49:05,42.805,6.029,4330,1995,196.124,59.976,13.287
2017-11-20T17:52:05,42.805,6.029,4330,1995,196.119,59.974,13.287
2017-11-20T17:55:05,42.805,6.029,4330,1995,196.211,60.002,13.287
2017-11-20T17:58:05,42.805,6.029,4330,1995,196.183,59.993,13.286
2017-11-20T18:01:05,42.805,6.029,4330,1995,196.120,59.974,13.286
2017-11-20T18:04:05,42.805,6.029,4330,1995,196.168,59.989,13.287
2017-11-20T18:07:05,42.805,6.029,4330,1995,196.118,59.975,13.287